Theta_e
305 305 305 305 305 306 306 305 305 305 304 305 305 305 305 305 306 306 307 307 307 308 309 308 308 308 309 310 312 313 313 313 309 311 314 316 317 317 317 319 317 318 319
304 304 304 304 304 304 303 302 303 302 302 302 302 301 302 302 303 303 303 303 303 303 303 303 303 303 304 305 305 305 306 307 306 303 306 308 309 312 314 315 315 317 318
303 303 302 302 301 301 300 300 299 299 299 299 299 299 299 300 300 300 300 300 301 301 302 301 302 302 302 303 303 302 301 302 302 299 298 302 302 305 307 309 310 314 316
302 301 301 301 300 299 298 297 297 297 297 298 298 298 298 298 298 298 298 299 300 300 301 301 301 301 300 301 300 300 300 300 300 298 298 298 299 300 300 299 300 305 307
301 300 300 299 298 297 296 296 296 295 295 296 295 296 297 297 297 297 298 298 298 298 298 298 298 295 290 293 295 296 296 295 294 294 293 294 294 295 295 298 297 299 304
300 300 299 297 296 296 295 294 293 293 293 293 294 294 294 294 293 293 294 296 295 295 294 295 296 292 294 293 294 294 295 294 292 292 292 291 292 294 295 295 295 295 294
300 299 297 296 294 294 293 292 291 291 291 291 292 293 293 294 293 293 291 293 293 293 293 293 293 294 292 295 295 294 293 293 294 293 291 292 292 294 294 292 293 294 295
298 297 295 294 293 292 291 290 289 289 289 290 290 291 291 292 292 292 291 292 292 292 293 293 293 293 294 293 293 293 292 292 292 293 293 293 294 294 294 293 292 291 293
295 295 293 291 290 290 289 289 288 288 288 289 289 289 289 290 291 291 291 291 291 291 292 293 293 292 292 292 291 290 290 291 293 293 293 293 293 293 293 291 288 287 287
293 293 293 291 291 290 289 288 287 287 286 286 286 288 287 288 290 290 290 291 289 289 290 290 288 289 290 291 290 289 287 289 290 289 289 290 291 291 291 290 289 286 286
292 290 288 288 288 288 287 286 285 285 284 285 285 287 287 288 289 290 290 290 289 287 287 288 289 290 290 291 291 289 289 291 289 287 287 287 288 289 289 290 290 289 287
289 287 286 285 285 284 284 284 283 283 283 284 284 285 287 288 287 290 290 290 291 289 287 288 288 289 290 290 289 290 290 290 287 285 285 285 286 287 288 288 288 291 293
285 284 284 283 283 283 283 282 282 283 282 283 283 284 286 288 289 289 290 290 290 289 288 288 289 288 289 288 289 289 286 286 285 284 283 284 285 286 286 287 287 287 287
282 280 280 280 280 281 281 282 282 282 282 282 282 283 284 285 287 288 288 288 287 288 288 287 287 287 288 288 287 287 286 285 284 282 282 283 284 285 284 284 283 283 282
279 278 279 280 278 279 279 279 280 281 281 280 281 282 281 282 284 286 286 287 287 287 286 285 284 285 284 284 285 284 285 283 282 283 282 282 282 283 282 283 281 281 278
278 277 278 277 277 276 276 277 278 278 279 280 281 282 283 284 285 287 287 287 287 287 285 283 282 282 281 281 280 280 282 281 281 281 282 281 280 280 279 280 279 279 278
276 275 275 273 274 274 275 274 274 277 277 277 279 280 282 284 285 283 284 284 285 285 281 280 280 279 278 278 278 279 279 280 280 281 280 280 279 279 278 277 276 276 275
269 266 271 272 272 272 272 272 272 272 272 274 277 279 281 281 281 281 281 281 280 280 278 276 275 276 276 276 277 277 278 279 279 279 278 278 278 277 276 275 274 273 273
269 270 270 270 270 269 270 270 271 271 272 273 275 278 278 278 278 277 276 273 273 273 274 274 274 274 275 275 276 277 277 277 277 277 277 276 276 276 274 274 272 271 271
268 267 267 269 269 269 270 270 270 271 271 272 273 273 274 275 274 272 271 270 270 270 271 271 272 272 272 273 275 276 276 276 275 276 275 275 275 274 273 272 271 270 270
268 268 267 267 267 268 268 269 269 270 270 271 271 272 274 270 270 269 268 268 268 269 269 270 270 270 270 271 272 274 274 274 274 274 274 274 273 272 272 271 270 270 270
267 267 267 267 267 268 268 268 269 269 269 269 269 269 270 268 268 267 268 268 268 268 268 268 269 269 268 268 269 269 270 270 271 273 273 272 272 272 271 271 270 269 269
266 266 267 267 267 266 267 267 267 267 267 267 267 267 267 267 267 267 267 267 267 267 267 268 267 267 268 269 269 268 268 268 269 270 271 271 271 271 270 269 268 268 267
266 266 266 266 266 266 266 266 266 265 266 266 266 266 267 267 267 266 266 267 267 267 267 267 267 267 268 269 270 270 269 269 269 269 270 270 269 269 268 267 267 266 266
265 265 265 265 265 265 265 265 265 266 266 266 267 266 266 267 266 266 266 266 266 266 265 266 266 267 267 268 270 270 269 267 268 269 269 268 267 267 266 266 266 266 265
264 264 264 264 264 265 265 265 265 266 266 266 266 266 266 266 266 266 266 265 265 265 265 265 266 266 267 268 269 271 271 271 268 268 269 268 267 266 266 265 265 265 265
Wind_Speed
6 6 6 5 4 4 3 3 2 2 3 2 3 4 4 5 5 5 6 7 9 9 9 10 12 13 9 9 9 10 11 11 16 18 13 14 17 18 16 16 15 17 15
6 7 6 6 5 5 4 3 2 1 1 3 4 4 4 4 5 6 7 7 8 9 9 9 10 8 11 11 9 13 12 13 12 21 15 13 16 17 19 20 17 15 17
6 6 6 6 6 5 5 4 4 3 3 3 4 5 4 4 5 6 6 7 8 8 8 9 10 10 10 9 11 11 11 11 12 13 16 11 13 13 17 17 18 18 16
7 6 7 7 6 5 4 4 4 3 4 3 4 5 5 5 6 6 6 7 7 7 8 10 11 12 12 12 11 13 12 12 13 14 14 14 12 12 12 15 17 15 16
8 9 9 7 6 6 5 4 3 3 4 4 5 6 6 7 5 6 7 8 8 9 10 10 11 11 12 13 10 13 15 12 12 13 15 15 14 13 14 12 16 15 18
11 12 10 10 8 7 6 4 3 4 5 5 7 7 8 5 6 9 7 9 10 10 11 11 12 10 13 15 16 19 17 15 16 13 14 15 21 16 15 14 15 15 19
12 11 11 10 9 9 6 4 4 5 5 6 7 7 9 9 8 8 8 9 10 11 12 12 11 9 10 13 16 18 19 19 21 17 20 18 22 19 18 19 18 17 21
12 11 10 10 9 8 6 5 5 5 6 6 7 8 9 9 10 11 11 11 10 13 13 12 12 13 12 13 15 15 16 15 16 14 18 21 20 21 19 19 23 23 22
11 13 12 11 9 8 7 7 5 5 6 7 6 8 9 10 10 11 12 10 10 11 10 11 12 13 16 20 16 17 18 16 16 23 27 31 34 36 30 19 20 17 21
12 13 11 10 10 10 7 6 4 4 6 5 7 8 9 12 11 13 12 7 9 8 9 10 13 14 19 20 16 15 18 17 15 17 18 21 25 23 28 20 18 19 18
7 7 9 10 9 7 6 4 3 5 6 7 8 8 10 10 11 13 15 8 7 8 8 8 8 15 18 20 21 15 18 19 20 15 16 14 14 14 13 14 16 17 18
8 8 6 5 3 3 3 3 4 5 7 7 7 7 7 9 12 13 15 14 12 9 10 9 9 17 22 23 20 25 24 21 12 11 12 13 13 13 13 15 18 20 17
6 8 8 7 6 5 6 5 5 6 6 6 5 6 6 5 6 11 13 14 14 11 9 14 23 25 25 19 20 19 16 9 9 11 13 13 12 14 16 15 15 16 11
5 4 4 4 3 3 2 4 5 5 5 5 6 6 6 5 5 5 4 6 12 11 11 10 14 22 22 17 10 10 7 8 10 10 12 13 13 12 11 10 12 8 5
5 4 5 3 3 2 3 4 5 6 5 5 6 6 7 6 5 11 13 9 8 8 12 7 10 10 10 10 9 8 7 8 8 8 10 12 12 11 9 9 8 6 4
5 4 2 3 3 3 3 5 8 12 12 11 14 11 6 12 17 17 15 17 19 20 8 8 7 10 11 11 10 10 9 10 8 8 7 9 10 9 8 8 7 6 5
2 2 1 1 1 2 3 4 6 3 9 10 11 13 13 13 15 18 19 19 21 17 7 8 7 7 9 10 10 10 10 9 9 7 7 7 8 7 7 6 6 6 8
3 3 1 2 2 1 2 3 4 6 8 6 8 12 12 15 18 17 17 14 7 9 6 6 7 7 7 8 9 9 9 8 8 7 6 7 6 6 5 6 6 7 7
3 2 2 2 3 2 2 3 4 5 6 6 7 7 9 16 15 11 13 5 6 7 5 5 5 6 6 6 7 7 7 7 8 7 6 6 6 5 6 6 7 10 9
2 4 4 4 3 3 2 3 3 4 5 5 6 7 8 6 7 7 6 6 5 6 5 5 6 5 6 6 7 6 6 6 7 7 6 6 6 6 6 6 7 9 8
1 2 4 4 4 3 4 4 3 3 4 4 5 6 12 4 5 5 5 5 4 5 6 6 6 7 6 7 7 7 7 6 6 6 6 6 5 5 5 6 6 7 7
3 3 3 3 3 3 3 3 4 4 4 4 3 3 8 4 4 4 4 5 5 5 5 5 5 5 6 7 7 7 7 7 7 7 6 5 5 5 5 6 6 6 5
3 3 2 1 2 2 2 2 3 2 3 2 3 4 5 4 3 3 4 5 6 6 6 6 6 6 6 6 7 7 7 7 7 7 6 5 5 5 5 6 6 6 6
2 1 0 1 1 2 2 1 1 3 2 4 5 4 5 4 4 5 6 6 5 5 5 5 5 8 7 7 7 7 7 7 6 6 7 5 5 6 6 6 6 7 6
1 2 2 2 3 3 3 4 3 4 4 5 4 4 5 4 5 6 5 4 4 4 5 5 6 8 9 11 8 9 9 10 9 8 5 7 8 9 7 6 6 7 7
3 4 4 4 4 3 4 4 4 5 5 5 5 5 5 5 5 5 5 5 4 4 5 5 7 9 10 9 12 10 10 11 9 10 6 6 6 6 6 7 8 6 6
Wind_Direction
148 142 134 131 131 130 129 106 63 10 352 326 316 311 311 306 301 292 280 279 275 278 281 282 283 289 290 291 289 286 281 280 281 288 288 290 287 282 276 265 255 254 252
168 157 154 155 159 158 155 143 137 184 265 304 296 287 284 286 285 280 276 273 274 275 279 280 282 288 288 289 289 288 287 290 288 288 295 298 294 298 292 286 275 261 256
180 178 171 171 173 174 173 177 185 207 242 263 277 280 281 282 281 279 279 279 276 277 281 283 289 293 290 291 293 294 291 291 289 286 291 292 292 295 295 290 284 279 265
197 192 197 195 190 189 191 205 217 226 247 254 259 270 271 273 267 272 271 276 276 285 290 291 293 293 293 298 299 298 295 293 292 288 287 291 289 291 283 285 282 275 279
206 208 210 195 190 193 205 222 242 270 285 288 287 277 273 270 269 291 294 299 298 296 293 290 289 295 296 284 286 289 291 290 289 290 288 294 291 294 282 281 276 280 271
213 218 204 193 195 205 208 217 262 287 294 296 289 288 290 282 283 285 302 300 296 291 289 286 285 272 273 265 264 265 270 282 281 279 282 281 284 286 287 282 278 277 280
214 213 207 202 200 203 202 194 245 266 282 279 281 281 282 283 279 283 296 290 288 283 283 286 281 274 268 273 276 273 270 267 261 275 277 273 283 281 288 288 279 272 269
212 210 198 199 203 193 190 202 225 244 252 262 271 276 281 281 276 278 273 282 278 279 279 276 276 280 279 282 284 283 280 274 269 264 263 272 269 277 275 279 281 281 279
216 212 202 192 192 189 197 201 210 231 244 249 259 272 273 276 274 280 287 289 280 278 274 271 271 277 280 279 282 281 280 280 278 268 263 268 273 275 274 283 276 275 274
220 216 203 185 186 196 195 192 201 232 254 261 264 261 267 272 270 270 274 276 274 277 273 270 258 262 271 273 275 280 284 286 291 291 286 282 279 277 277 263 273 271 270
198 184 181 178 182 185 176 176 207 248 266 269 267 266 261 259 266 261 266 268 271 276 276 277 271 270 276 280 279 280 276 289 297 293 292 288 284 282 283 279 271 261 262
173 176 161 137 124 152 170 198 233 248 257 260 262 266 254 251 244 250 251 267 274 278 281 283 282 282 287 289 286 282 285 293 291 290 288 290 294 299 298 297 291 279 256
181 170 158 144 165 174 187 213 233 236 249 263 264 272 272 247 245 248 260 269 281 279 280 288 293 296 296 291 281 286 290 281 286 288 294 294 298 301 302 302 300 285 274
140 114 104 142 166 186 236 242 247 252 263 275 279 280 285 283 279 279 265 267 269 268 278 284 287 294 292 286 290 282 277 279 288 291 296 299 305 310 313 321 305 311 299
120 141 162 174 190 208 240 256 255 261 263 281 281 285 294 292 290 293 290 291 287 285 296 293 300 299 302 302 298 293 293 294 295 299 306 305 309 317 323 328 307 327 351
147 162 195 195 178 203 256 278 249 259 268 271 284 284 287 288 295 296 313 315 309 298 296 297 297 304 302 306 304 304 301 307 308 305 306 309 315 324 332 338 333 358 19
29 27 134 217 276 324 321 312 308 280 269 276 299 314 313 311 330 329 319 309 300 299 287 297 303 308 307 304 305 305 308 314 312 308 321 322 321 328 351 340 359 11 27
93 97 284 303 300 324 308 299 301 312 314 315 318 322 323 337 329 325 328 326 309 286 295 304 303 307 306 307 307 310 316 321 329 333 341 340 340 351 16 347 30 25 34
303 261 241 232 237 241 257 282 290 291 293 307 317 331 342 333 326 345 348 345 311 294 324 316 315 311 314 312 310 319 328 335 334 344 357 357 1 8 33 354 61 45 53
296 303 296 296 283 265 240 253 272 283 292 325 334 327 328 322 335 347 350 330 317 316 347 335 334 335 334 328 325 334 337 354 350 354 360 2 18 29 27 33 16 70 49
245 260 253 257 271 286 293 280 285 293 324 317 303 321 316 6 340 342 338 330 343 354 358 354 354 347 350 345 342 349 349 355 356 357 359 6 15 35 37 41 38 28 68
244 239 233 258 268 280 290 314 306 308 289 289 319 349 360 29 20 10 357 354 6 16 5 359 2 1 355 352 352 348 352 356 355 351 357 5 17 30 35 45 48 48 31
226 242 258 293 298 317 346 350 312 329 353 2 25 31 34 41 35 32 35 16 14 19 22 19 10 10 1 10 4 356 351 352 345 343 354 10 22 34 35 43 43 53 55
242 243 44 32 44 75 73 90 60 61 51 55 58 61 57 48 41 37 42 35 27 16 21 20 13 11 5 20 15 12 8 360 355 1 9 29 46 45 47 49 54 62 65
139 124 109 110 112 112 117 93 90 90 78 75 72 72 71 60 49 43 43 38 24 14 19 15 9 4 8 5 16 24 23 19 24 20 32 47 58 57 55 54 54 64 71
117 112 105 105 102 109 111 112 104 93 87 81 79 71 67 64 54 47 39 29 21 17 14 15 10 7 5 9 5 13 28 37 30 28 39 48 53 54 57 65 63 56 52